Location: �perlecques
(50.8057°N, 2.1521°E)
Time: 07:21:35
(UTC+00:00)

Vanguard 1 Rocket - Pass Details

Date: 02 August 2021
Orbit: 650 x 4226 km, 34.3° (Epoch: 22 September)

Event Time Altitude Azimuth Distance (km) Brightness Sun altitude
Rises 10:26:30 0° 238° (WSW) 7,948 12.2 52.2°
Reaches altitude 10° 10:33:10 10° 231° (SW) 6,462 11.9 52.8°
Maximum altitude 10:48:44 35° 176° (S) 3,312 11.6 54.1°
Drops below altitude 10° 10:57:47 10° 115° (ESE) 3,768 11.1 54.7°
Sets 11:00:30 0° 106° (ESE) 4,391 11.2 54.9°
